Torna al catalogo

ARIANE 44L DEB

AttivoHEO
NORAD 28041·DEBRIS·🇫🇷 France

Lanciato Oct 29, 1991 da Guiana Space Centre

Loading…

Prossimi Passaggi (prossime 24 ore)

TLE

AggiornatoSource: Space-Track

Epoca: Sep 14, 2026, 12:49 UTC

1 28041U 91075L   26257.53432787 -.00000259  00000-0 -39536-2 0  9994
2 28041   6.9275 261.8052 6603828 239.5577 254.2009  2.85130511253953

Traccia ARIANE 44L DEB in tempo reale con AllMySat

Download on the App Store